| time (UTC) | temp F | wind direction | speed knots | gust knots | rain 1hr in | rain 24hr in | rain mn in | humidity % | barometer mb |
| 20260503184535 | 53 | 232 | 2.6 | 2.6 | 0.00 | 0.00 | 0.00 | 39 | 1011.3 |
| 20260503184032 | 54 | 31 | 6.1 | 7.8 | 0.00 | 0.00 | 0.00 | 38 | 1011.5 |
| 20260503183528 | 53 | 290 | 8.7 | 9.6 | 0.00 | 0.00 | 0.00 | 38 | 1011.7 |
| 20260503183026 | 54 | 303 | 5.2 | 7.8 | 0.00 | 0.00 | 0.00 | 37 | 1011.8 |
| 20260503182524 | 53 | 175 | 1.7 | 2.6 | 0.00 | 0.00 | 0.00 | 39 | 1011.8 |
| 20260503182022 | 52 | 305 | 13.0 | 18.2 | 0.00 | 0.00 | 0.00 | 38 | 1012.0 |
| 20260503181518 | 52 | 309 | 7.0 | 8.7 | 0.00 | 0.00 | 0.00 | 38 | 1011.8 |
| 20260503181015 | 54 | 337 | 5.2 | 8.7 | 0.00 | 0.00 | 0.00 | 40 | 1012.1 |
| 20260503180512 | 53 | 125 | 2.6 | 5.2 | 0.00 | 0.00 | 0.00 | 40 | 1012.1 |
| 20260503180009 | 53 | 336 | 4.3 | 7.0 | 0.00 | 0.00 | 0.00 | 39 | 1011.9 |
| 20260503175507 | 53 | 199 | 1.7 | 1.7 | 0.00 | 0.00 | 0.00 | 40 | 1012.2 |
| 20260503175003 | 53 | 235 | 5.2 | 7.8 | 0.00 | 0.00 | 0.00 | 40 | 1012.1 |
| 20260503174501 | 52 | 207 | 2.6 | 4.3 | 0.00 | 0.00 | 0.00 | 39 | 1012.4 |
| 20260503173956 | 53 | 290 | 7.8 | 9.6 | 0.00 | 0.00 | 0.00 | 39 | 1012.6 |
| 20260503173452 | 52 | 229 | 6.1 | 7.0 | 0.00 | 0.00 | 0.00 | 38 | 1012.4 |
| 20260503172949 | 51 | 300 | 5.2 | 7.0 | 0.00 | 0.00 | 0.00 | 39 | 1012.7 |
| 20260503172446 | 51 | 280 | 7.8 | 13.0 | 0.00 | 0.00 | 0.00 | 40 | 1012.8 |
| 20260503171943 | 50 | 318 | 7.8 | 11.3 | 0.00 | 0.00 | 0.00 | 40 | 1012.6 |
| 20260503171439 | 50 | 280 | 10.4 | 17.4 | 0.00 | 0.00 | 0.00 | 41 | 1012.4 |
| 20260503170937 | 50 | 292 | 4.3 | 7.8 | 0.00 | 0.00 | 0.00 | 40 | 1012.7 |
| 20260503170433 | 50 | 269 | 6.1 | 7.8 | 0.00 | 0.00 | 0.00 | 40 | 1012.9 |
| 20260503150826 | 47 | 187 | 1.7 | 2.6 | 0.00 | 0.00 | 0.00 | 43 | 1013.6 |
| 20260503150321 | 47 | 271 | 3.5 | 4.3 | 0.00 | 0.00 | 0.00 | 44 | 1013.7 |
| 20260503140246 | 46 | 274 | 7.8 | 12.2 | 0.00 | 0.00 | 0.00 | 44 | 1013.8 |
| 20260503131215 | 42 | 191 | 1.7 | 2.6 | 0.00 | 0.00 | 0.00 | 54 | 1013.9 |
| 20260503130713 | 41 | 260 | 7.8 | 8.7 | 0.00 | 0.00 | 0.00 | 55 | 1013.9 |
| 20260503130210 | 42 | 225 | 4.3 | 6.1 | 0.00 | 0.00 | 0.00 | 56 | 1014.1 |
| 20260503120136 | 40 | 175 | 1.7 | 1.7 | 0.00 | 0.00 | 0.00 | 69 | 1014.2 |
| 20260503110604 | 38 | 316 | 2.6 | 2.6 | 0.00 | 0.00 | 0.00 | 75 | 1013.7 |
| 20260503090450 | 38 | 321 | 2.6 | 4.3 | 0.00 | 0.00 | 0.00 | 74 | 1012.9 |
| 20260503081417 | 38 | 189 | 0.0 | 0.0 | 0.00 | 0.00 | 0.00 | 74 | 1013.0 |
| 20260503080914 | 38 | 294 | 2.6 | 2.6 | 0.00 | 0.00 | 0.00 | 74 | 1013.1 |
| 20260503080410 | 38 | 161 | 0.0 | 0.0 | 0.00 | 0.00 | 0.00 | 74 | 1013.3 |
| 20260503072847 | 38 | 311 | 2.6 | 2.6 | 0.00 | 0.00 | 0.00 | 74 | 1013.3 |
| 20260503072344 | 38 | 268 | 1.7 | 1.7 | 0.00 | 0.00 | 0.00 | 74 | 1012.9 |
| 20260503071840 | 38 | 191 | 0.0 | 0.0 | 0.00 | 0.00 | 0.00 | 74 | 1013.1 |
| 20260503071337 | 38 | 214 | 0.9 | 1.7 | 0.00 | 0.00 | 0.00 | 74 | 1013.1 |
| 20260503070833 | 38 | 301 | 3.5 | 4.3 | 0.00 | 0.00 | 0.00 | 74 | 1013.0 |
| 20260503070332 | 38 | 197 | 0.9 | 0.9 | 0.00 | 0.00 | 0.00 | 74 | 1012.8 |
| 20260503060256 | 38 | 339 | 1.7 | 1.7 | 0.00 | 0.00 | 0.00 | 75 | 1013.6 |
| 20260503054744 | 38 | 187 | 0.0 | 0.9 | 0.00 | 0.00 | 0.00 | 75 | 1013.5 |
| 20260503054240 | 38 | 152 | 0.0 | 0.0 | 0.00 | 0.00 | 0.00 | 76 | 1013.6 |
| 20260503053738 | 38 | 204 | 0.9 | 0.9 | 0.00 | 0.00 | 0.00 | 76 | 1013.5 |
| 20260503053237 | 38 | 212 | 0.9 | 0.9 | 0.00 | 0.00 | 0.00 | 76 | 1013.5 |
| 20260503052733 | 38 | 166 | 0.9 | 0.9 | 0.00 | 0.00 | 0.00 | 76 | 1014.0 |
| 20260503052230 | 38 | 192 | 0.9 | 0.9 | 0.00 | 0.00 | 0.00 | 76 | 1014.0 |
| 20260503051724 | 38 | 167 | 0.0 | 0.0 | 0.00 | 0.00 | 0.00 | 75 | 1013.9 |
| 20260503051223 | 38 | 215 | 1.7 | 1.7 | 0.00 | 0.00 | 0.00 | 76 | 1013.9 |
| 20260503050719 | 38 | 196 | 0.9 | 0.9 | 0.00 | 0.00 | 0.00 | 76 | 1013.9 |
| 20260503050215 | 38 | 310 | 2.6 | 2.6 | 0.00 | 0.00 | 0.00 | 76 | 1014.3 |
| 20260503045713 | 38 | 169 | 0.0 | 0.0 | 0.00 | 0.00 | 0.00 | 76 | 1014.1 |
| 20260503045211 | 37 | 218 | 0.9 | 0.9 | 0.00 | 0.00 | 0.00 | 76 | 1014.1 |
| 20260503044707 | 37 | 148 | 0.0 | 0.9 | 0.00 | 0.00 | 0.00 | 76 | 1014.3 |
| 20260503044204 | 37 | 148 | 0.0 | 0.0 | 0.00 | 0.00 | 0.00 | 75 | 1014.2 |
| 20260503043701 | 37 | 148 | 0.0 | 0.0 | 0.00 | 0.00 | 0.00 | 75 | 1014.2 |
| 20260503043159 | 37 | 148 | 0.0 | 0.0 | 0.00 | 0.00 | 0.00 | 75 | 1014.3 |
| 20260503042654 | 37 | 148 | 0.0 | 0.0 | 0.00 | 0.00 | 0.00 | 74 | 1014.5 |
| 20260503042151 | 38 | 148 | 0.0 | 0.0 | 0.00 | 0.00 | 0.00 | 74 | 1014.4 |
| 20260503041647 | 38 | 148 | 0.0 | 0.0 | 0.00 | 0.00 | 0.00 | 74 | 1014.1 |
| 20260503041145 | 38 | 141 | 0.0 | 0.0 | 0.00 | 0.00 | 0.00 | 74 | 1014.3 |
| 20260503040642 | 38 | 136 | 0.0 | 0.0 | 0.00 | 0.00 | 0.00 | 73 | 1014.3 |
| 20260503040140 | 38 | 125 | 0.9 | 1.7 | 0.00 | 0.00 | 0.00 | 73 | 1014.3 |
| 20260503035636 | 38 | 9 | 2.6 | 2.6 | 0.00 | 0.00 | 0.00 | 73 | 1014.3 |
| 20260503035134 | 38 | 109 | 0.9 | 0.9 | 0.00 | 0.00 | 0.00 | 72 | 1014.4 |
| 20260503034631 | 38 | 168 | 0.0 | 0.0 | 0.00 | 0.00 | 0.00 | 72 | 1014.3 |
| 20260503034128 | 38 | 125 | 0.9 | 0.9 | 0.00 | 0.00 | 0.00 | 72 | 1014.3 |
| 20260503033625 | 38 | 216 | 0.9 | 1.7 | 0.00 | 0.00 | 0.00 | 71 | 1014.3 |
| 20260503033122 | 39 | 144 | 0.0 | 0.9 | 0.00 | 0.00 | 0.00 | 71 | 1014.3 |
| 20260503032620 | 39 | 185 | 0.9 | 0.9 | 0.00 | 0.00 | 0.00 | 71 | 1014.4 |
| 20260503032119 | 39 | 27 | 0.9 | 0.9 | 0.00 | 0.00 | 0.00 | 71 | 1014.5 |
| 20260503031616 | 39 | 196 | 0.9 | 0.9 | 0.00 | 0.00 | 0.00 | 71 | 1014.3 |
| 20260503031114 | 39 | 306 | 2.6 | 2.6 | 0.00 | 0.00 | 0.00 | 70 | 1014.3 |
| 20260503030609 | 39 | 292 | 1.7 | 1.7 | 0.00 | 0.00 | 0.00 | 70 | 1014.5 |
| 20260503030106 | 39 | 196 | 0.9 | 0.9 | 0.00 | 0.00 | 0.00 | 70 | 1014.4 |
| 20260503025603 | 39 | 177 | 0.0 | 0.0 | 0.00 | 0.00 | 0.00 | 70 | 1014.4 |
| 20260503025101 | 40 | 181 | 0.9 | 0.9 | 0.00 | 0.00 | 0.00 | 70 | 1014.4 |
| 20260503024557 | 40 | 231 | 0.9 | 0.9 | 0.00 | 0.00 | 0.00 | 70 | 1014.5 |
| 20260503024054 | 40 | 317 | 4.3 | 6.1 | 0.00 | 0.00 | 0.00 | 69 | 1014.5 |
| 20260503023551 | 40 | 198 | 0.9 | 0.9 | 0.00 | 0.00 | 0.00 | 69 | 1014.7 |
| 20260503023048 | 40 | 234 | 1.7 | 1.7 | 0.00 | 0.00 | 0.00 | 69 | 1014.3 |
| 20260503022544 | 40 | 355 | 0.0 | 0.0 | 0.00 | 0.00 | 0.00 | 69 | 1014.4 |
| 20260503022039 | 40 | 244 | 2.6 | 2.6 | 0.00 | 0.00 | 0.00 | 69 | 1014.7 |
| 20260503021536 | 39 | 65 | 1.7 | 1.7 | 0.00 | 0.00 | 0.00 | 69 | 1014.4 |
| 20260503021033 | 40 | 156 | 0.0 | 0.0 | 0.00 | 0.00 | 0.00 | 68 | 1014.7 |
| 20260503020530 | 40 | 220 | 0.9 | 1.7 | 0.00 | 0.00 | 0.00 | 68 | 1014.5 |
| 20260503020027 | 40 | 183 | 0.9 | 0.9 | 0.00 | 0.00 | 0.00 | 67 | 1014.6 |
| 20260503015524 | 40 | 191 | 0.0 | 0.0 | 0.00 | 0.00 | 0.00 | 66 | 1014.5 |
| 20260503015021 | 41 | 294 | 0.9 | 1.7 | 0.00 | 0.00 | 0.00 | 66 | 1014.6 |
| 20260503014517 | 41 | 219 | 1.7 | 1.7 | 0.00 | 0.00 | 0.00 | 65 | 1014.5 |
| 20260503014015 | 41 | 231 | 0.9 | 0.9 | 0.00 | 0.00 | 0.00 | 65 | 1014.5 |
| 20260503013512 | 41 | 236 | 1.7 | 1.7 | 0.00 | 0.00 | 0.00 | 65 | 1014.3 |
| 20260503013010 | 41 | 217 | 1.7 | 1.7 | 0.00 | 0.00 | 0.00 | 65 | 1014.4 |
| 20260503012507 | 41 | 194 | 0.0 | 0.9 | 0.00 | 0.00 | 0.00 | 64 | 1014.3 |
| 20260503012003 | 41 | 298 | 1.7 | 2.6 | 0.00 | 0.00 | 0.00 | 64 | 1014.3 |
| 20260503011500 | 41 | 317 | 1.7 | 1.7 | 0.00 | 0.00 | 0.00 | 63 | 1014.5 |
| 20260503010957 | 41 | 281 | 2.6 | 5.2 | 0.00 | 0.00 | 0.00 | 63 | 1014.3 |
| 20260503010453 | 41 | 282 | 2.6 | 2.6 | 0.00 | 0.00 | 0.00 | 63 | 1014.2 |
| 20260503005951 | 42 | 216 | 0.9 | 1.7 | 0.00 | 0.00 | 0.00 | 65 | 1014.3 |
| 20260503005448 | 42 | 300 | 3.5 | 5.2 | 0.00 | 0.00 | 0.00 | 65 | 1014.1 |
| 20260503004944 | 42 | 273 | 1.7 | 1.7 | 0.00 | 0.00 | 0.00 | 64 | 1014.1 |
| 20260503004441 | 42 | 281 | 2.6 | 2.6 | 0.00 | 0.00 | 0.00 | 63 | 1013.8 |
| 20260503003939 | 42 | 280 | 2.6 | 2.6 | 0.00 | 0.00 | 0.00 | 62 | 1013.9 |
| 20260503003436 | 43 | 206 | 0.9 | 0.9 | 0.00 | 0.00 | 0.00 | 61 | 1014.1 |
| 20260503002933 | 43 | 294 | 3.5 | 4.3 | 0.00 | 0.00 | 0.00 | 60 | 1013.9 |
| 20260503002430 | 43 | 206 | 0.9 | 0.9 | 0.00 | 0.00 | 0.00 | 59 | 1014.0 |
| 20260503001926 | 43 | 266 | 2.6 | 2.6 | 0.00 | 0.00 | 0.00 | 58 | 1014.1 |
| 20260503001423 | 43 | 44 | 1.7 | 2.6 | 0.00 | 0.00 | 0.00 | 57 | 1013.9 |
| 20260503000921 | 43 | 291 | 3.5 | 4.3 | 0.00 | 0.00 | 0.00 | 57 | 1013.9 |
| 20260503000417 | 43 | 301 | 5.2 | 6.1 | 0.00 | 0.00 | 0.00 | 56 | 1013.8 |
| 20260502235914 | 43 | 210 | 1.7 | 1.7 | 0.00 | 0.00 | 0.00 | 56 | 1013.8 |
| 20260502235411 | 44 | 296 | 4.3 | 5.2 | 0.00 | 0.00 | 0.00 | 56 | 1013.8 |
| 20260502234909 | 44 | 288 | 2.6 | 4.3 | 0.00 | 0.00 | 0.00 | 56 | 1013.8 |
| 20260502234405 | 44 | 210 | 0.9 | 1.7 | 0.00 | 0.00 | 0.00 | 56 | 1013.7 |
| 20260502233902 | 44 | 6 | 2.6 | 2.6 | 0.00 | 0.00 | 0.00 | 55 | 1013.9 |
| 20260502233357 | 44 | 323 | 2.6 | 4.3 | 0.00 | 0.00 | 0.00 | 55 | 1013.7 |
| 20260502232855 | 44 | 179 | 0.9 | 0.9 | 0.00 | 0.00 | 0.00 | 54 | 1013.4 |
| 20260502232351 | 44 | 189 | 1.7 | 1.7 | 0.00 | 0.00 | 0.00 | 54 | 1013.8 |
| 20260502231848 | 44 | 260 | 0.9 | 1.7 | 0.00 | 0.00 | 0.00 | 53 | 1013.7 |
| 20260502231346 | 44 | 237 | 2.6 | 2.6 | 0.00 | 0.00 | 0.00 | 53 | 1013.8 |
| 20260502230844 | 45 | 226 | 0.9 | 1.7 | 0.00 | 0.00 | 0.00 | 54 | 1013.5 |
| 20260502230342 | 45 | 289 | 0.9 | 0.9 | 0.00 | 0.00 | 0.00 | 54 | 1013.5 |
| 20260502225838 | 45 | 276 | 2.6 | 2.6 | 0.00 | 0.00 | 0.00 | 52 | 1013.4 |
| 20260502225335 | 45 | 275 | 2.6 | 4.3 | 0.00 | 0.00 | 0.00 | 52 | 1013.4 |
| 20260502224832 | 45 | 203 | 0.9 | 0.9 | 0.00 | 0.00 | 0.00 | 52 | 1013.1 |
| 20260502224328 | 45 | 250 | 1.7 | 2.6 | 0.00 | 0.00 | 0.00 | 51 | 1013.0 |
| 20260502223825 | 45 | 300 | 2.6 | 4.3 | 0.00 | 0.00 | 0.00 | 51 | 1013.5 |
| 20260502223323 | 45 | 241 | 2.6 | 4.3 | 0.00 | 0.00 | 0.00 | 50 | 1013.4 |
| 20260502222821 | 46 | 309 | 2.6 | 2.6 | 0.00 | 0.00 | 0.00 | 51 | 1013.3 |
| 20260502222318 | 46 | 273 | 0.9 | 1.7 | 0.00 | 0.00 | 0.00 | 51 | 1013.4 |
| 20260502221813 | 46 | 82 | 1.7 | 1.7 | 0.00 | 0.00 | 0.00 | 52 | 1013.1 |
| 20260502221304 | 46 | 299 | 4.3 | 5.2 | 0.00 | 0.00 | 0.00 | 50 | 1013.3 |
| 20260502220802 | 46 | 11 | 2.6 | 4.3 | 0.00 | 0.00 | 0.00 | 51 | 1013.0 |
| 20260502220257 | 46 | 229 | 0.9 | 0.9 | 0.00 | 0.00 | 0.00 | 51 | 1013.3 |
| 20260502215754 | 46 | 278 | 3.5 | 7.8 | 0.00 | 0.00 | 0.00 | 51 | 1013.3 |
| 20260502215251 | 46 | 259 | 1.7 | 2.6 | 0.00 | 0.00 | 0.00 | 49 | 1012.9 |
| 20260502214748 | 47 | 252 | 2.6 | 4.3 | 0.00 | 0.00 | 0.00 | 51 | 1013.0 |
| 20260502214245 | 46 | 243 | 2.6 | 2.6 | 0.00 | 0.00 | 0.00 | 50 | 1013.1 |
| 20260502213742 | 46 | 239 | 2.6 | 4.3 | 0.00 | 0.00 | 0.00 | 51 | 1013.3 |
| 20260502213240 | 46 | 200 | 0.0 | 0.9 | 0.00 | 0.00 | 0.00 | 52 | 1013.1 |
| 20260502212739 | 46 | 223 | 2.6 | 2.6 | 0.00 | 0.00 | 0.00 | 51 | 1013.0 |
| 20260502212236 | 46 | 238 | 1.7 | 1.7 | 0.00 | 0.00 | 0.00 | 52 | 1013.1 |
| 20260502211732 | 46 | 199 | 0.0 | 0.9 | 0.00 | 0.00 | 0.00 | 51 | 1013.3 |
| 20260502211229 | 46 | 228 | 1.7 | 1.7 | 0.00 | 0.00 | 0.00 | 50 | 1013.0 |
| 20260502210726 | 46 | 199 | 0.0 | 0.9 | 0.00 | 0.00 | 0.00 | 52 | 1013.0 |
| 20260502210223 | 46 | 302 | 2.6 | 4.3 | 0.00 | 0.00 | 0.00 | 51 | 1013.4 |
| 20260502205721 | 46 | 310 | 4.3 | 4.3 | 0.00 | 0.00 | 0.00 | 50 | 1013.4 |
| 20260502205216 | 46 | 323 | 3.5 | 4.3 | 0.00 | 0.00 | 0.00 | 51 | 1013.3 |
| 20260502204714 | 47 | 265 | 3.5 | 5.2 | 0.00 | 0.00 | 0.00 | 51 | 1013.4 |
| 20260502204212 | 46 | 298 | 2.6 | 4.3 | 0.00 | 0.00 | 0.00 | 51 | 1013.4 |
| 20260502203709 | 46 | 233 | 3.5 | 5.2 | 0.00 | 0.00 | 0.00 | 51 | 1013.0 |
| 20260502203206 | 47 | 314 | 1.7 | 2.6 | 0.00 | 0.00 | 0.00 | 51 | 1013.3 |
| 20260502202700 | 46 | 199 | 0.9 | 0.9 | 0.00 | 0.00 | 0.00 | 50 | 1013.6 |
| 20260502202159 | 46 | 171 | 1.7 | 1.7 | 0.00 | 0.00 | 0.00 | 51 | 1013.6 |
| 20260502201656 | 46 | 241 | 3.5 | 4.3 | 0.00 | 0.00 | 0.00 | 49 | 1013.1 |
| 20260502201153 | 46 | 224 | 0.9 | 1.7 | 0.00 | 0.00 | 0.00 | 48 | 1013.5 |
| 20260502200648 | 46 | 315 | 4.3 | 5.2 | 0.00 | 0.00 | 0.00 | 49 | 1013.7 |
| 20260502200145 | 46 | 313 | 2.6 | 2.6 | 0.00 | 0.00 | 0.00 | 48 | 1013.6 |
| 20260502195643 | 47 | 304 | 5.2 | 6.1 | 0.00 | 0.00 | 0.00 | 48 | 1013.7 |
| 20260502195139 | 47 | 293 | 3.5 | 4.3 | 0.00 | 0.00 | 0.00 | 48 | 1013.7 |
| 20260502194636 | 47 | 283 | 1.7 | 1.7 | 0.00 | 0.00 | 0.00 | 47 | 1013.7 |
| 20260502194133 | 47 | 207 | 0.9 | 1.7 | 0.00 | 0.00 | 0.00 | 49 | 1013.7 |
| 20260502193629 | 47 | 258 | 1.7 | 1.7 | 0.00 | 0.00 | 0.00 | 48 | 1013.9 |
| 20260502193127 | 46 | 320 | 4.3 | 5.2 | 0.00 | 0.00 | 0.00 | 47 | 1013.9 |
| 20260502192622 | 47 | 289 | 2.6 | 2.6 | 0.00 | 0.00 | 0.00 | 48 | 1013.8 |
| 20260502192120 | 47 | 309 | 5.2 | 7.0 | 0.00 | 0.00 | 0.00 | 46 | 1013.7 |
| 20260502191616 | 47 | 287 | 4.3 | 6.1 | 0.00 | 0.00 | 0.00 | 46 | 1014.1 |
| 20260502191114 | 47 | 347 | 2.6 | 2.6 | 0.00 | 0.00 | 0.00 | 46 | 1013.7 |
| 20260502190611 | 47 | 261 | 4.3 | 5.2 | 0.00 | 0.00 | 0.00 | 45 | 1013.6 |
| 20260502190109 | 47 | 291 | 3.5 | 5.2 | 0.00 | 0.00 | 0.00 | 46 | 1013.9 |
| 20260502185603 | 48 | 294 | 4.3 | 6.1 | 0.00 | 0.00 | 0.00 | 45 | 1013.8 |
| 20260502185100 | 48 | 215 | 1.7 | 1.7 | 0.00 | 0.00 | 0.00 | 45 | 1013.9 |